Regional Weather Roundup
Issued by NWS

Home | Current Version | Previous Version | Text Only | Print | Product List | Glossary Off
Versions: 1 2 3 4 5 6 7 8 9 10 11 12 13 14 15 16 17 18 19 20 21 22 23 24 25 26 27 28 29 30 31 32 33 34 35 36 37 38 39 40 41 42 43 44 45 46 47 48 49 50

000
ASUS45 KSLC 192010
RWRUT

UTAH REGIONAL WEATHER ROUNDUP
NATIONAL WEATHER SERVICE SALT LAKE CITY UT
100 PM MST FRI DEC 19 2014

UTZ001>011-023>025-192100-

NORTHERN UTAH

CITY           SKY/WX    TMP DP  RH WIND       PRES   REMARKS
BRIGHAM CITY   PTSUNNY   43  28  56 SE8       30.15F
HILL AFB       PTSUNNY   41  26  55 S13       30.14F
LOGAN          CLOUDY    41  28  60 N3        30.13F
OGDEN          CLOUDY    43  28  55 S12       30.13F
PROVO AIRPORT  MOSUNNY   43  27  52 S8        30.18F
SALT LAKE CITY PTSUNNY   44  27  51 S13       30.14F
VERNAL         CLOUDY    29  21  72 CALM      30.22F
WENDOVER       SUNNY     36  27  69 E6        30.14F WCI  31
HEBER CITY     MOSUNNY   36  25  64 CALM      30.15F
WEST JORDAN    CLOUDY    41  32  70 SE14      30.15F

$$

UTZ012>022-026-027-192100-

SOUTHERN/CENTRAL UTAH

CITY           SKY/WX    TMP DP  RH WIND       PRES   REMARKS
BLANDING       MOSUNNY   38  29  72 S3        30.28F
BRYCE CANYON   CLOUDY    32  19  58 SE8       30.18F WCI  25
CEDAR CITY     MOSUNNY   42  29  59 SW14      30.15F
DELTA          PTSUNNY   40  26  56 CALM      30.16F
MILFORD        MOSUNNY   43  29  57 S18       30.14F
MOAB/CYNLANDS  CLOUDY    39  32  76 N6        30.22F WCI  35
PRICE          MOSUNNY   32  24  72 SE6       30.19F WCI  26
ST GEORGE      PTCLDY    45  34  65 CALM      30.25F
KANAB          PTSUNNY   39  32  75 S3        30.25F

$$

REGIONAL REPORTS     COLORADO/ARIZONA

CITY           SKY/WX    TMP DP  RH WIND       PRES   REMARKS
CRAIG, CO      MIX PCPN  27  22  81 E8        30.19F WCI  19
GRAND JUNCTION PTSUNNY   37  28  70 CALM      30.22F
RIFLE          MOSUNNY   35  26  69 VRB5      30.21F WCI  31
MONTROSE       MOSUNNY   39  21  48 CALM      30.23F
CORTEZ         SUNNY     40  23  50 NW10G18   30.19F WCI  33
PAGE, AZ       SUNNY     42  31  64 NE5       30.22F
GRAND CANYON   PTSUNNY   43  22  43 VRB5      30.20F
KINGMAN        MOSUNNY   52  35  52 CALM      30.20F
FLAGSTAFF      SUNNY     36  25  64 E6        30.20F WCI  31

$$

REGIONAL REPORTS    NEVADA/IDAHO/WYOMING

CITY           SKY/WX    TMP DP  RH WIND       PRES   REMARKS
LAS VEGAS, NV  MOSUNNY   53  37  54 CALM      30.17F
ELY            SUNNY     41  22  46 S6        30.14F
ELKO           CLOUDY    44  28  53 CALM      30.08F
POCATELLO, ID  PTSUNNY   42  29  59 S18G26    30.06F
BURLEY         CLOUDY    43  30  60 S18G31    30.04F
EVANSTON, WY   CLOUDY    34  21  59 SW12      30.11F WCI  25
ROCK SPRINGS   PTSUNNY   33  20  58 W17       30.08F WCI  22
KEMMERER       CLOUDY    32  21  64 W8        30.10S WCI  25

$$



USA.gov is the U.S. government's official web portal to all federal, state and local government web resources and services.